User: anonymous   Login
Location: Boca do Mato
(22.9085°S, 43.2930°W)
Time: 13:28:45
(UTC+00:00)
Language:

CZ-4B DEB - Orbit

View from above orbital plane
View from above orbital plane
View from above satellite
View from above satellite

Ground track
Ground track

The orbit data is extracted from the following two-line orbital elements,

1 27433U 02024D   20271.89765083 +.00000059 +00000-0 +56863-4 0  9991
2 27433 099.0824 269.2802 0013521 275.0270 084.9357 14.12426834946388
Epoch (UTC): 27 September 2020 21:32:37
Eccentricity: 0.0013521
inclination: 99.0824°
perigee height: 841 km
apogee height: 861 km
right ascension of ascending node: 269.2802°
argument of perigee: 275.0270°
revolutions per day: 14.12426834
mean anomaly at epoch: 84.9357°
orbit number at epoch: 94638

The dashed part of the orbit path shows where the satellite is in the earth's shadow,  

DLR